Location: Arborea
(39.7744°N, 8.5819°E)
Time: 03:12:44
(UTC+00:00)

Cosmos 1953 - Pass Details

Date: 29 May 2022
Orbit: 533 x 555 km, 82.5° (Epoch: 04 July)

Event Time Altitude Azimuth Distance (km) Brightness Sun altitude
Rises 23:22:17 0° 357° (N) 2,716 7.1 -28.5°
Reaches altitude 10° 23:24:30 10° 2° (N) 1,815 5.9 -28.5°
Enters shadow 23:26:58 34° 22° (NNE) 914 3.9 -28.5°
